GW7644 Weather Reports


time (UTC)temp
C
wind
direction
speed
KPH
gust
KPH
rain 1hr
cm
rain 24hr
cm
rain mn
cm
humidity
%
barometer
mb
20260906150519 23 125 4.8 6.4 0.00 0.00 0.00 88 1018.0
20260906150014 22 72 4.8 6.4 0.00 0.00 0.00 88 1017.8
20260906145513 22 124 3.2 9.7 0.00 0.00 0.00 88 1017.9
20260906145009 22 142 4.8 12.9 0.00 0.00 0.00 88 1017.8
20260906144502 22 112 0.0 3.2 0.00 0.00 0.00 88 1017.5
20260906143958 22 136 1.6 11.3 0.00 0.00 0.00 88 1017.2
20260906143453 23 132 8.0 11.3 0.00 0.00 0.00 87 1017.3
20260906142949 22 141 1.6 9.7 0.00 0.00 0.00 89 1017.2
20260906142449 22 149 4.8 6.4 0.00 0.00 0.00 89 1017.2
20260906141944 22 136 3.2 9.7 0.00 0.00 0.00 90 1017.0
20260906141443 22 125 4.8 12.9 0.00 0.00 0.00 90 1017.2
20260906140938 22 140 6.4 11.3 0.00 0.00 0.00 90 1017.7
20260906140433 22 140 1.6 3.2 0.00 0.00 0.00 90 1017.6
20260906135931 22 126 4.8 9.7 0.00 0.00 0.00 90 1017.7
20260906135430 22 127 1.6 9.7 0.00 0.00 0.00 91 1017.5
20260906134926 22 125 3.2 11.3 0.00 0.00 0.00 90 1017.5
20260906134421 22 86 8.0 14.5 0.00 0.00 0.00 89 1017.5
20260906133915 22 146 1.6 3.2 0.00 0.00 0.00 90 1017.2
20260906133411 22 139 1.6 6.4 0.00 0.00 0.00 90 1017.2
20260906132907 22 123 3.2 11.3 0.00 0.00 0.00 89 1017.3
20260906132402 22 132 3.2 3.2 0.00 0.00 0.00 90 1017.3
20260906131857 22 157 3.2 3.2 0.00 0.00 0.00 89 1017.1
20260906131353 22 128 0.0 3.2 0.00 0.00 0.00 89 1017.1
20260906130848 22 124 0.0 1.6 0.00 0.00 0.00 90 1017.3
20260906130348 22 85 1.6 4.8 0.00 0.00 0.00 90 1017.1
20260906125847 22 136 1.6 3.2 0.00 0.00 0.00 91 1017.0
20260906125344 22 117 4.8 6.4 0.00 0.00 0.00 91 1016.9
20260906124839 22 125 3.2 3.2 0.00 0.00 0.00 92 1016.7
20260906124335 22 123 3.2 3.2 0.00 0.00 0.00 91 1016.8
20260906123834 22 125 3.2 3.2 0.00 0.00 0.00 92 1016.8
20260906123329 22 136 0.0 1.6 0.00 0.00 0.00 92 1016.8
20260906122829 22 136 0.0 0.0 0.00 0.00 0.00 93 1017.1
20260906122324 21 136 0.0 0.0 0.00 0.00 0.00 93 1016.9
20260906121821 21 138 0.0 0.0 0.00 0.00 0.00 93 1016.9
20260906121316 21 138 0.0 1.6 0.00 0.00 0.00 93 1016.7
20260906120813 21 139 0.0 0.0 0.00 0.00 0.00 93 1016.5
20260906120308 21 139 0.0 0.0 0.00 0.00 0.00 93 1016.6
20260906115804 21 139 0.0 0.0 0.00 0.00 0.00 94 1016.5
20260906115259 21 139 0.0 1.6 0.00 0.00 0.00 94 1016.5
20260906114759 21 139 1.6 3.2 0.00 0.00 0.00 94 1016.2
20260906114254 21 128 0.0 1.6 0.00 0.00 0.00 94 1016.4
20260906113749 21 128 0.0 0.0 0.00 0.00 0.00 94 1016.3
20260906113249 21 129 0.0 3.2 0.00 0.00 0.00 94 1016.2
20260906112748 21 133 1.6 1.6 0.00 0.00 0.00 95 1015.9
20260906112245 21 133 0.0 0.0 0.00 0.00 0.00 95 1016.2
20260906111745 21 133 0.0 1.6 0.00 0.00 0.00 95 1016.1
20260906111244 21 133 0.0 0.0 0.00 0.00 0.00 95 1016.1
20260906110739 21 129 1.6 3.2 0.00 0.00 0.00 95 1016.0
20260906110235 21 129 1.6 1.6 0.00 0.00 0.00 95 1016.0
20260906105733 21 130 0.0 0.0 0.00 0.00 0.00 95 1016.2
20260906105230 21 128 3.2 3.2 0.00 0.00 0.00 95 1016.0
20260906104725 21 122 1.6 3.2 0.00 0.00 0.00 95 1016.0
20260906104224 21 135 3.2 3.2 0.00 0.00 0.00 96 1015.8
20260906103722 21 134 1.6 1.6 0.00 0.00 0.00 95 1016.0
20260906103217 21 136 1.6 1.6 0.00 0.00 0.00 95 1016.0
20260906102712 21 136 1.6 3.2 0.00 0.00 0.00 95 1015.9
20260906102211 21 136 0.0 0.0 0.00 0.00 0.00 95 1015.8
20260906101706 21 136 0.0 0.0 0.00 0.00 0.00 95 1015.9
20260906101200 21 136 3.2 3.2 0.00 0.00 0.00 95 1015.7
20260906100656 21 149 1.6 1.6 0.00 0.00 0.00 95 1015.6
20260906100156 21 152 1.6 1.6 0.00 0.00 0.00 94 1015.7
20260906095651 21 130 1.6 1.6 0.00 0.00 0.00 94 1015.7
20260906095147 21 125 0.0 1.6 0.00 0.00 0.00 94 1015.7
20260906094645 21 128 0.0 1.6 0.00 0.00 0.00 94 1015.6
20260906094141 21 141 1.6 1.6 0.00 0.00 0.00 94 1015.6
20260906093637 21 129 1.6 3.2 0.00 0.00 0.00 94 1015.3
20260906093137 21 110 0.0 4.8 0.00 0.00 0.00 93 1015.3
20260906092632 22 133 0.0 1.6 0.00 0.00 0.00 93 1015.1
20260906092133 22 132 3.2 3.2 0.00 0.00 0.00 93 1015.1
20260906091629 22 123 1.6 3.2 0.00 0.00 0.00 93 1015.2
20260906091125 22 123 1.6 1.6 0.00 0.00 0.00 92 1015.3
20260906090620 22 139 3.2 6.4 0.00 0.00 0.00 92 1015.1
20260906090120 22 121 3.2 4.8 0.00 0.00 0.00 92 1014.9
20260906085620 22 128 1.6 1.6 0.00 0.00 0.00 93 1015.0
20260906085114 22 104 4.8 4.8 0.00 0.00 0.00 93 1015.0
20260906084609 22 133 1.6 3.2 0.00 0.00 0.00 94 1015.0
20260906084108 22 126 3.2 3.2 0.00 0.00 0.00 95 1014.9
20260906083603 22 129 1.6 1.6 0.00 0.00 0.00 95 1015.1
20260906083103 22 130 3.2 3.2 0.00 0.00 0.00 94 1015.3
20260906082558 22 129 1.6 3.2 0.00 0.00 0.00 94 1015.2
20260906082054 22 119 1.6 1.6 0.00 0.00 0.00 94 1015.2
20260906081549 22 119 1.6 3.2 0.00 0.00 0.00 94 1015.3
20260906081045 22 119 0.0 0.0 0.00 0.00 0.00 94 1015.3
20260906080542 22 119 0.0 0.0 0.00 0.00 0.00 94 1015.1
20260906080037 22 119 0.0 1.6 0.00 0.00 0.00 93 1015.0
20260906075537 22 119 0.0 0.0 0.00 0.00 0.00 93 1015.4
20260906075032 22 119 1.6 1.6 0.00 0.00 0.00 93 1015.3
20260906074527 22 120 1.6 3.2 0.00 0.00 0.00 93 1015.4
20260906074025 22 119 1.6 1.6 0.00 0.00 0.00 93 1015.3
20260906073520 22 119 3.2 3.2 0.00 0.00 0.00 93 1015.0
20260906073017 22 119 1.6 1.6 0.00 0.00 0.00 93 1015.2
20260906072511 22 119 1.6 1.6 0.00 0.00 0.00 93 1015.4
20260906072007 22 119 1.6 1.6 0.00 0.00 0.00 92 1015.2
20260906071503 22 119 0.0 0.0 0.00 0.00 0.00 92 1015.4
20260906070958 23 119 0.0 1.6 0.00 0.00 0.00 92 1015.3
20260906070454 23 129 0.0 0.0 0.00 0.00 0.00 92 1015.3
20260906065950 23 129 0.0 4.8 0.00 0.00 0.00 92 1015.2
20260906065449 23 131 1.6 1.6 0.00 0.00 0.00 92 1015.3
20260906064945 23 138 1.6 1.6 0.00 0.00 0.00 91 1015.4
20260906064442 23 139 0.0 3.2 0.00 0.00 0.00 91 1015.2
20260906063942 23 129 1.6 3.2 0.00 0.00 0.00 91 1015.3
20260906063438 23 124 3.2 3.2 0.00 0.00 0.00 91 1015.5
20260906062937 23 128 0.0 0.0 0.00 0.00 0.00 91 1015.4
20260906062433 23 122 3.2 3.2 0.00 0.00 0.00 91 1015.3
20260906061928 23 115 1.6 1.6 0.00 0.00 0.00 90 1015.1
20260906061424 23 122 1.6 1.6 0.00 0.00 0.00 90 1015.2
20260906060924 23 125 3.2 3.2 0.00 0.00 0.00 90 1015.3
20260906060421 23 125 1.6 1.6 0.00 0.00 0.00 89 1015.3
20260906055917 23 131 1.6 1.6 0.00 0.00 0.00 89 1015.4
20260906055413 23 119 1.6 4.8 0.00 0.00 0.00 89 1015.4
20260906054908 24 128 1.6 1.6 0.00 0.00 0.00 89 1015.1
20260906054402 24 129 1.6 1.6 0.00 0.00 0.00 88 1015.3
20260906053859 24 130 1.6 1.6 0.00 0.00 0.00 88 1015.3
20260906053354 25 134 1.6 3.2 0.00 0.00 0.00 87 1015.0
20260906052850 25 130 1.6 3.2 0.00 0.00 0.00 87 1015.2
20260906052346 25 123 1.6 3.2 0.00 0.00 0.00 87 1015.2
20260906051843 25 132 1.6 1.6 0.00 0.00 0.00 89 1015.2
20260906051342 25 125 1.6 3.2 0.00 0.00 0.00 90 1015.1
20260906050838 25 121 0.0 1.6 0.00 0.00 0.00 90 1015.1
20260906050333 25 117 1.6 3.2 0.00 0.00 0.00 89 1014.9
20260906045832 25 134 3.2 3.2 0.00 0.00 0.00 89 1014.8
20260906045326 25 118 1.6 4.8 0.00 0.00 0.00 89 1014.6
20260906044823 25 123 1.6 3.2 0.00 0.00 0.00 90 1014.6
20260906044323 25 147 0.0 1.6 0.00 0.00 0.00 90 1014.8
20260906043819 25 114 1.6 3.2 0.00 0.00 0.00 91 1014.6
20260906043315 25 114 3.2 3.2 0.00 0.00 0.00 91 1014.5
20260906042814 25 142 0.0 1.6 0.00 0.00 0.00 92 1014.8
20260906042313 25 133 1.6 1.6 0.00 0.00 0.00 92 1014.6
20260906041809 25 135 0.0 1.6 0.00 0.00 0.00 92 1014.6
20260906041304 25 135 1.6 1.6 0.00 0.00 0.00 92 1014.5
20260906040759 26 135 0.0 1.6 0.00 0.00 0.00 92 1014.3
20260906040254 26 138 0.0 0.0 0.00 0.00 0.00 91 1014.3
20260906035750 26 138 0.0 0.0 0.00 0.00 0.00 91 1014.2
20260906035246 26 138 0.0 0.0 0.00 0.00 0.00 90 1014.0
20260906034745 26 138 1.6 1.6 0.00 0.00 0.00 90 1014.1
20260906034240 26 141 1.6 1.6 0.00 0.00 0.00 90 1014.1
20260906033736 26 100 1.6 1.6 0.00 0.00 0.00 89 1014.0
20260906033235 26 96 0.0 1.6 0.00 0.00 0.00 89 1014.1
20260906032732 26 96 0.0 1.6 0.00 0.00 0.00 89 1014.0
20260906032232 26 106 1.6 1.6 0.00 0.00 0.00 88 1014.0
20260906031727 26 108 0.0 1.6 0.00 0.00 0.00 89 1013.9
20260906031223 26 88 1.6 4.8 0.00 0.00 0.00 89 1013.6
20260906030723 26 103 0.0 0.0 0.00 0.00 0.00 89 1013.9
20260906030218 26 103 1.6 3.2 0.00 0.00 0.00 89 1013.7
20260906025717 26 149 0.0 0.0 0.00 0.00 0.00 88 1013.6
20260906025212 27 149 0.0 0.0 0.00 0.00 0.00 87 1013.6
20260906024711 27 149 0.0 0.0 0.00 0.00 0.00 87 1013.8
20260906024210 27 149 1.6 1.6 0.00 0.00 0.00 87 1013.5
20260906023707 27 149 1.6 1.6 0.00 0.00 0.00 88 1013.5
20260906023207 27 149 0.0 0.0 0.00 0.00 0.00 88 1013.4
20260906022702 27 149 0.0 0.0 0.00 0.00 0.00 88 1013.5
20260906022157 27 149 0.0 0.0 0.00 0.00 0.00 87 1013.4
20260906021654 27 149 0.0 1.6 0.00 0.00 0.00 87 1013.5
20260906021152 27 149 0.0 0.0 0.00 0.00 0.00 87 1013.5
20260906020647 27 149 0.0 0.0 0.00 0.00 0.00 86 1013.5
20260906020142 27 149 0.0 0.0 0.00 0.00 0.00 86 1013.4
20260906015642 27 149 1.6 1.6 0.00 0.00 0.00 85 1013.4
20260906015140 27 149 1.6 1.6 0.00 0.00 0.00 85 1013.1
20260906014635 27 149 0.0 0.0 0.00 0.00 0.00 85 1013.3
20260906014131 27 149 0.0 0.0 0.00 0.00 0.00 84 1013.1
20260906013626 27 149 0.0 0.0 0.00 0.00 0.00 84 1013.1
20260906013122 27 149 1.6 1.6 0.00 0.00 0.00 84 1013.1
20260906012616 27 149 0.0 0.0 0.00 0.00 0.00 84 1013.0
20260906012116 27 149 0.0 0.0 0.00 0.00 0.00 83 1013.1
20260906011612 28 149 0.0 0.0 0.00 0.00 0.00 83 1012.8
20260906011107 28 149 0.0 0.0 0.00 0.00 0.00 82 1013.0
20260906010602 28 149 0.0 0.0 0.00 0.00 0.00 82 1012.6
20260906010058 28 149 0.0 0.0 0.00 0.00 0.00 81 1012.9
20260906005557 28 149 0.0 0.0 0.00 0.00 0.00 79 1012.5
20260906005056 28 149 0.0 0.0 0.00 0.00 0.00 78 1012.4
20260906004556 28 149 0.0 0.0 0.00 0.00 0.00 77 1012.5
20260906004051 29 149 0.0 0.0 0.00 0.00 0.00 76 1012.6
20260906003546 29 149 0.0 0.0 0.00 0.00 0.00 75 1012.5
20260906003043 29 149 0.0 0.0 0.00 0.00 0.00 74 1012.4
20260906002543 30 149 0.0 0.0 0.00 0.00 0.00 74 1012.8
20260906002037 30 149 0.0 0.0 0.00 0.00 0.00 74 1012.8
20260906001533 30 149 0.0 0.0 0.00 0.00 0.00 72 1012.6
20260906001027 30 149 0.0 0.0 0.00 0.00 0.00 70 1012.6
20260906000523 30 149 0.0 0.0 0.00 0.00 0.00 69 1012.6
20260906000018 31 149 0.0 0.0 0.00 0.00 0.00 69 1012.5
20260905235517 31 149 0.0 0.0 0.00 0.00 0.00 69 1012.3
20260905235013 31 149 0.0 0.0 0.00 0.00 0.00 68 1012.5
20260905234509 31 149 0.0 0.0 0.00 0.00 0.00 66 1012.8
20260905234009 32 149 0.0 0.0 0.00 0.00 0.00 64 1012.5
20260905233503 32 149 0.0 0.0 0.00 0.00 0.00 63 1012.5
20260905233003 32 149 0.0 0.0 0.00 0.00 0.00 62 1012.3
20260905232458 33 149 0.0 1.6 0.00 0.00 0.00 60 1012.3
20260905231954 33 149 0.0 0.0 0.00 0.00 0.00 58 1012.2
20260905231449 34 150 0.0 1.6 0.00 0.00 0.00 57 1012.5
20260905230946 35 143 0.0 3.2 0.00 0.00 0.00 57 1012.4
20260905230444 35 151 0.0 0.0 0.00 0.00 0.00 54 1012.2
20260905225943 35 151 0.0 1.6 0.00 0.00 0.00 53 1012.3
20260905225438 35 106 0.0 0.0 0.00 0.00 0.00 52 1012.2
20260905224933 35 151 0.0 0.0 0.00 0.00 0.00 52 1012.2
20260905224429 35 151 0.0 1.6 0.00 0.00 0.00 52 1012.2
20260905223928 35 128 1.6 3.2 0.00 0.00 0.00 50 1012.2
20260905223426 35 181 3.2 3.2 0.00 0.00 0.00 50 1012.3
20260905222926 35 78 0.0 1.6 0.00 0.00 0.00 50 1012.1
20260905222426 36 154 0.0 1.6 0.00 0.00 0.00 53 1012.3
20260905221922 35 137 0.0 0.0 0.00 0.00 0.00 52 1012.3
20260905221418 35 149 0.0 1.6 0.00 0.00 0.00 52 1012.4
20260905220914 35 152 1.6 3.2 0.00 0.00 0.00 53 1012.3
20260905220410 35 47 0.0 1.6 0.00 0.00 0.00 54 1012.3
20260905215909 36 117 1.6 1.6 0.00 0.00 0.00 53 1012.4
20260905215405 36 208 1.6 1.6 0.00 0.00 0.00 55 1012.2
20260905214901 36 205 1.6 6.4 0.00 0.00 0.00 52 1012.4
20260905214356 36 179 1.6 3.2 0.00 0.00 0.00 53 1012.2
20260905213851 36 150 0.0 1.6 0.00 0.00 0.00 50 1012.4
20260905213347 36 161 0.0 1.6 0.00 0.00 0.00 49 1012.4
20260905212842 36 118 1.6 3.2 0.00 0.00 0.00 49 1012.3
20260905212342 36 117 1.6 4.8 0.00 0.00 0.00 50 1012.3
20260905211841 36 234 1.6 3.2 0.00 0.00 0.00 47 1012.6
20260905211337 37 132 3.2 3.2 0.00 0.00 0.00 44 1012.3
20260905210834 37 242 3.2 3.2 0.00 0.00 0.00 45 1012.5
20260905210333 37 204 0.0 3.2 0.00 0.00 0.00 48 1012.4
20260905205832 36 100 1.6 3.2 0.00 0.00 0.00 47 1012.3
20260905205327 36 186 0.0 3.2 0.00 0.00 0.00 48 1012.6
20260905204826 36 122 0.0 3.2 0.00 0.00 0.00 48 1012.6
20260905204323 36 120 0.0 3.2 0.00 0.00 0.00 46 1012.8
20260905203821 36 339 1.6 4.8 0.00 0.00 0.00 46 1012.8
20260905203317 36 244 4.8 4.8 0.00 0.00 0.00 46 1012.8
20260905202813 36 185 1.6 3.2 0.00 0.00 0.00 47 1013.0
20260905202307 36 218 1.6 4.8 0.00 0.00 0.00 48 1013.0
20260905201803 36 208 3.2 3.2 0.00 0.00 0.00 46 1012.8
20260905201258 36 118 1.6 6.4 0.00 0.00 0.00 47 1013.2
20260905200753 36 152 1.6 4.8 0.00 0.00 0.00 47 1013.0
20260905200249 36 173 1.6 1.6 0.00 0.00 0.00 47 1012.9
20260905195746 36 170 0.0 4.8 0.00 0.00 0.00 49 1013.0
20260905195241 36 234 3.2 6.4 0.00 0.00 0.00 50 1013.0
20260905194738 36 179 1.6 4.8 0.00 0.00 0.00 47 1013.0
20260905194237 36 215 1.6 3.2 0.00 0.00 0.00 49 1013.1
20260905193736 35 170 1.6 1.6 0.00 0.00 0.00 50 1013.1
20260905193232 36 261 3.2 4.8 0.00 0.00 0.00 48 1013.2
20260905192727 36 229 1.6 4.8 0.00 0.00 0.00 48 1013.3
20260905192223 36 85 1.6 1.6 0.00 0.00 0.00 48 1013.2
20260905191722 35 269 1.6 6.4 0.00 0.00 0.00 51 1013.2
20260905191220 35 243 8.0 11.3 0.00 0.00 0.00 47 1013.0
20260905190720 36 238 1.6 6.4 0.00 0.00 0.00 50 1013.3
20260905190219 35 191 0.0 1.6 0.00 0.00 0.00 51 1013.4
20260905185718 35 221 3.2 4.8 0.00 0.00 0.00 47 1013.1
20260905185212 35 255 3.2 6.4 0.00 0.00 0.00 49 1013.3
20260905184707 36 263 1.6 4.8 0.00 0.00 0.00 48 1013.3
20260905184206 36 276 8.0 11.3 0.00 0.00 0.00 46 1013.3
20260905183706 36 227 0.0 6.4 0.00 0.00 0.00 46 1013.4
20260905183201 36 260 4.8 4.8 0.00 0.00 0.00 48 1013.5
20260905182700 36 194 3.2 4.8 0.00 0.00 0.00 45 1013.5
20260905182200 36 228 3.2 3.2 0.00 0.00 0.00 45 1013.4
20260905181656 35 257 1.6 3.2 0.00 0.00 0.00 49 1013.4
20260905181154 35 228 4.8 4.8 0.00 0.00 0.00 48 1013.5
20260905180649 35 251 6.4 6.4 0.00 0.00 0.00 47 1013.7
20260905180145 35 237 6.4 9.7 0.00 0.00 0.00 47 1013.6
20260905175643 35 219 6.4 9.7 0.00 0.00 0.00 47 1013.8
20260905175139 36 262 6.4 9.7 0.00 0.00 0.00 46 1013.8
20260905174635 35 273 3.2 6.4 0.00 0.00 0.00 47 1013.7
20260905174130 35 252 3.2 6.4 0.00 0.00 0.00 49 1013.7
20260905173626 36 264 4.8 4.8 0.00 0.00 0.00 47 1013.9
20260905173122 35 247 3.2 3.2 0.00 0.00 0.00 51 1013.9
20260905172621 36 232 4.8 6.4 0.00 0.00 0.00 47 1013.9
20260905172116 36 240 1.6 4.8 0.00 0.00 0.00 50 1014.0
20260905171612 35 194 1.6 3.2 0.00 0.00 0.00 49 1014.2
20260905171108 35 327 1.6 6.4 0.00 0.00 0.00 50 1014.0
20260905170604 35 240 3.2 4.8 0.00 0.00 0.00 49 1014.1
20260905170059 35 224 3.2 6.4 0.00 0.00 0.00 50 1014.2
20260905165600 35 245 6.4 6.4 0.00 0.00 0.00 49 1014.1
20260905165055 36 235 3.2 4.8 0.00 0.00 0.00 50 1014.4
20260905164550 35 279 0.0 3.2 0.00 0.00 0.00 51 1014.2
20260905164049 35 230 1.6 4.8 0.00 0.00 0.00 54 1014.0
20260905163546 35 225 3.2 6.4 0.00 0.00 0.00 52 1014.2
20260905163042 35 230 1.6 6.4 0.00 0.00 0.00 54 1014.1
20260905162538 35 217 1.6 1.6 0.00 0.00 0.00 54 1014.0
20260905162037 34 270 1.6 3.2 0.00 0.00 0.00 55 1014.0
20260905161532 33 219 3.2 6.4 0.00 0.00 0.00 54 1014.2
20260905161030 34 243 3.2 9.7 0.00 0.00 0.00 54 1014.1
20260905160528 33 209 3.2 3.2 0.00 0.00 0.00 56 1014.1
20260905160023 33 227 4.8 4.8 0.00 0.00 0.00 58 1014.1
20260905155523 33 236 1.6 3.2 0.00 0.00 0.00 58 1014.2
20260905155021 33 224 1.6 4.8 0.00 0.00 0.00 62 1014.0
20260905154517 33 242 4.8 4.8 0.00 0.00 0.00 60 1014.1
20260905154012 32 248 1.6 3.2 0.00 0.00 0.00 63 1014.1
20260905153508 32 245 3.2 4.8 0.00 0.00 0.00 63 1014.3
20260905153008 32 280 1.6 3.2 0.00 0.00 0.00 65 1014.1
20260905152508 32 257 1.6 4.8 0.00 0.00 0.00 63 1014.0
20260905152002 32 248 3.2 6.4 0.00 0.00 0.00 62 1014.1
20260905151458 32 239 3.2 3.2 0.00 0.00 0.00 64 1014.0
20260905150953 32 257 1.6 3.2 0.00 0.00 0.00 63 1013.9